OPS 4682 DEB, 38395

Orbit data source: Space-Track

OPS 4682 DEB, 38395 is space debris in LEO originally from a launch on Sat, 03 Apr 1965 UTC launched from the Air Force Western Test Range (AFWTR). Debris objects in space refer to the collection of defunct objects orbiting the Earth. Examples of debris include non-operational satellites, rocket bodies, and fragments generated from explosions, collisions, or faulty payload assembly.

Loading next visibility...
Identifier
38395, 1965-027CY
Orbit
LEO
Country
Flag of USUS
Related business
Manufacturer
Unknown
Mission
Spacecraft
Bus & Motor
Unknown
Mass
Unknown
Launch date (UTC)
1965-04-03 (61 years ago)
Launch vehicle
Unknown
Launch site
Air Force Western Test Range (AFWTR)
Object type
Payload
Rocket body
Debris
Shape & HBR
Unknown shape, 0.1 m
Radar Cross Section
Medium (>0.1 m² and <1 m²)

Expand to show TLE details & history
Last TLE update: 19 hours ago

TLE from 19 hours ago
0 OPS 4682 DEB
1 38395U 65027CY  26174.86472035  .00000766  00000-0  25720-2 0  9990
2 38395  90.2581  18.4905 0028520 321.2605  38.6471 12.98488699 95858
Epoch: 2026-06-23T20:45Z
TLE epoch observation values (Epoch: 2026-06-23T20:45:11.838Z)
Latitude
0.00001°
Longitude
155.16101°
Altitude
1,253.885 km
Speed
7.236 km/s
True Right ascension
01h 13m 57s
True Declination
0° 00' 00"
Sunlit
Object was in daylight at epoch
Visualization orbit readout
Latitude
Unknown
Longitude
Unknown
Altitude
Unknown
Speed
Unknown
Apparent Right ascension
Unknown
Apparent Declination
Unknown
Sunlit
N/A
Visualization observer readout
Local Sidereal Time
03:14:56
Azimuth
Unknown
Elevation
Unknown
Doppler factor
Unknown
Orbital elements
Apogee altitude
1,286.942 km
Perigee altitude
1,243.344 km
Semi-major axis
7,643.28 km
Eccentricity
0.00285
Inclination
90.2581°
RAAN
18.4905°
Arg. of periapsis
321.2605°
True anomaly
38.85177°
Mean anomaly
38.6471°
Eccentric anomaly
38.74938°
Mean motion
3.24806 °/min
Orbital period
110.84 mins
BSTAR
0.002572
Loading maneuver chart data...
Computing Atmospheric mass density...
Loading historical data...
Loading historical data...
Loading historical data...
Loading historical data...
Loading historical data...
Loading historical data...
Loading historical data...

Documentation

Showing up to 5 results
|